Stations météo

réclame
Mon MeteoGroup
Treviso/Istrana, Italie (16098): Température de l'air & dewpoint: 08.08.2018 23:00:00 - 14.08.2018 23:00:00 (CEST)Treviso/Istrana, Italie (16098): Vitesse du vent: 08.08.2018 23:00:00 - 14.08.2018 23:00:00 (CEST)Treviso/Istrana, Italie (16098): Direction du vent: 08.08.2018 23:00:00 - 14.08.2018 23:00:00 (CEST)Treviso/Istrana, Italie (16098): reduced air pressure: 08.08.2018 23:00:00 - 14.08.2018 23:00:00 (CEST)Treviso/Istrana, Italie (16098): visibility: 08.08.2018 23:00:00 - 14.08.2018 23:00:00 (CEST)
Date & Time tt [°C] td [°C] ff [km/h] ff [knt] dd ppp [hPa] vv [km]
14.08.2018 23:00:00 21,0 18,6 9 5 ENE 1014,8 20
14.08.2018 22:00:00 20,8 18,9 21 11 ENE 1014,5 20
14.08.2018 21:00:00 20,0 18,5 18 10 ENE 1013,7 15
14.08.2018 20:00:00 24,0 21,1 31 17 E 1011,0 15
14.08.2018 19:00:00 25,0 19,2 11 6 NW 1010,8 15
14.08.2018 18:00:00 27,0 18,6 5 3 NNE 1010,7 10
14.08.2018 17:00:00 29,0 19,6 9 5 NNE 1010,6 10
14.08.2018 16:00:00 28,6 20,6 8 4 ENE 1010,9 10
14.08.2018 15:00:00 27,2 20,5 9 5 NNW 1011,9 10
14.08.2018 14:00:00 27,0 19,9 5 3 SW 1011,9 10
14.08.2018 13:00:00 26,0 20,1 5 3 W 1011,9 10
14.08.2018 12:00:00 25,0 20,3 8 4 NNE 1012,0 10
14.08.2018 11:00:00 25,0 20,5 5 3 E 1011,9 10
14.08.2018 10:00:00 24,0 20,9 2 1 NE 1011,9 10
14.08.2018 09:00:00 22,0 19,5 8 4 NNE 1011,9 10
14.08.2018 08:00:00 21,6 19,2 8 4 NNE 1011,4 5
14.08.2018 07:00:00 21,0 18,6 4 2 SSE 1011,0 12
14.08.2018 06:00:00 21,2 18,6 5 3 ENE 1010,4 15
14.08.2018 05:00:00 21,6 18,8 5 3 NE 1010,6 15
14.08.2018 04:00:00 21,6 18,8 5 3 NNW 1010,6 15
14.08.2018 03:00:00 21,6 19,2 4 2 W 1010,8 15
14.08.2018 02:00:00 21,4 19,0 4 2 WSW 1010,8 15
14.08.2018 01:00:00 21,4 19,0 4 2 W 1010,9 15
14.08.2018 00:00:00 21,2 19,1 8 4 WSW 1011,0 12
13.08.2018 23:00:00 20,8 19,1 4 2 WNW 1010,9 6
13.08.2018 22:00:00 20,4 19,2 13 7 NNW 1011,0 5
13.08.2018 21:00:00 21,6 20,2 9 5 NNW 1011,0 6
13.08.2018 20:00:00 23,8 21,3 13 7 E 1010,7 10
13.08.2018 19:00:00 25,0 22,5 15 8 ENE 1010,2 15
13.08.2018 18:00:00 27,4 22,8 9 5 NE 1010,3 12
13.08.2018 17:00:00 22,4 20,0 26 14 E 1011,7 6
13.08.2018 16:00:00 31,2 23,3 13 7 SSW 1011,2 12
13.08.2018 15:00:00 32,2 22,0 8 4 SSW 1011,4 12
13.08.2018 14:00:00 32,2 20,8 11 6 SSW 1012,5 15
13.08.2018 13:00:00 31,8 20,7 9 5 SW 1013,3 15
13.08.2018 12:00:00 31,8 21,7 4 2 S 1013,6 15
13.08.2018 11:00:00 29,4 20,5 9 5 E 1013,5 15
13.08.2018 10:00:00 28,2 20,2 8 4 ENE 1014,0 15
13.08.2018 09:00:00 26,0 19,9 11 6 NE 1013,6 15
13.08.2018 08:00:00 24,4 20,3 9 5 NE 1013,4 10
13.08.2018 07:00:00 22,8 20,0 4 2 NNE 1013,2 10
13.08.2018 06:00:00 21,6 19,2 8 4 NE 1012,7 10
13.08.2018 05:00:00 21,6 19,7 8 4 NNE 1013,0 10
13.08.2018 04:00:00 22,4 20,7 0 0 N 1014,3 10
13.08.2018 03:00:00 23,4 21,7 0 0 N 1014,2 10
13.08.2018 02:00:00 24,2 22,5 4 2 N 1014,6 10
13.08.2018 01:00:00 24,6 23,2 4 2 W 1014,2 10
13.08.2018 00:00:00 24,8 23,0 0 0 N 1014,4 10
12.08.2018 23:00:00 26,0 22,7 0 0 N 1014,4 10
12.08.2018 22:00:00 26,8 22,7 0 0 N 1014,2 10
12.08.2018 21:00:00 28,0 23,2 0 0 N 1014,2 10
12.08.2018 20:00:00 29,2 21,4 8 4 SW 1014,4 25
12.08.2018 19:00:00 30,4 20,9 9 5 SSW 1014,4 20
12.08.2018 18:00:00 31,6 19,9 9 5 WSW 1014,9 25
12.08.2018 17:00:00 32,0 19,6 5 3 NE 1015,2 25
12.08.2018 16:00:00 32,2 18,4 11 6 SSE 1016,0 30
12.08.2018 15:00:00 31,8 18,4 11 6 SW 1016,6 30
12.08.2018 14:00:00 31,4 17,3 11 6 E 1017,4 30
12.08.2018 13:00:00 30,4 17,1 13 7 E 1017,8 30
12.08.2018 12:00:00 30,0 17,5 16 9 E 1017,9 30
12.08.2018 11:00:00 29,2 17,1 21 11 E 1018,1 30
12.08.2018 10:00:00 28,2 17,4 21 11 E 1018,2 30
12.08.2018 09:00:00 27,0 19,1 18 10 ENE 1020,0 30
12.08.2018 08:00:00 25,2 19,6 13 7 ENE 1018,1 25
12.08.2018 07:00:00 23,6 19,3 11 6 ENE 1018,2 15
12.08.2018 06:00:00 23,2 19,2 15 8 NE 1017,7 15
12.08.2018 05:00:00 23,2 19,8 11 6 NE 1017,7 15
12.08.2018 04:00:00 23,4 19,8 11 6 ENE 1017,7 15
12.08.2018 03:00:00 23,8 19,9 13 7 NE 1017,9 15
12.08.2018 02:00:00 22,8 20,5 9 5 NNE 1018,2 15
12.08.2018 01:00:00 24,2 20,3 0 0 N 1018,2 15
12.08.2018 00:00:00 24,4 20,3 9 5 NE 1017,7 15
11.08.2018 23:00:00 25,0 20,7 11 6 ENE 1017,4 15
11.08.2018 22:00:00 25,2 19,8 15 8 ENE 1017,4 15
11.08.2018 21:00:00 26,8 21,3 18 10 E 1016,8 15
11.08.2018 20:00:00 28,6 22,6 8 4 ENE 1016,0 10
11.08.2018 19:00:00 29,0 21,8 5 3 NNE 1016,2 10
11.08.2018 18:00:00 29,0 23,0 5 3 NW 1016,3 10
11.08.2018 17:00:00 28,8 22,3 5 3 WNW 1016,8 10
11.08.2018 16:00:00 30,0 21,9 9 5 W 1016,7 10
11.08.2018 15:00:00 31,0 20,9 9 5 WSW 1016,6 10
11.08.2018 14:00:00 32,2 21,1 8 4 S 1017,7 10
11.08.2018 13:00:00 31,8 22,5 8 4 E 1017,9 10
11.08.2018 12:00:00 30,0 21,9 15 8 ESE 1018,0 10
11.08.2018 11:00:00 29,2 22,0 13 7 E 1018,0 10
11.08.2018 10:00:00 28,2 21,2 13 7 ENE 1018,0 10
11.08.2018 09:00:00 26,0 21,4 11 6 ENE 1017,7 10
11.08.2018 08:00:00 23,4 21,1 8 4 ENE 1017,1 12
11.08.2018 07:00:00 23,0 20,9 5 3 N 1017,1 12
11.08.2018 06:00:00 23,0 21,3 8 4 N 1017,2 10
11.08.2018 05:00:00 23,2 20,9 5 3 E 1017,6 10
11.08.2018 04:00:00 24,0 22,3 4 2 NE 1018,6 10
11.08.2018 03:00:00 25,0 22,3 5 3 NNE 1018,6 10
11.08.2018 02:00:00 25,0 22,3 5 3 N 1018,6 10
11.08.2018 01:00:00 25,0 20,9 5 3 NE 1018,6 10
11.08.2018 00:00:00 27,0 23,2 5 3 SSE 1018,3 10
10.08.2018 23:00:00 27,0 23,2 4 2 S 1017,1 10
10.08.2018 22:00:00 27,0 24,3 8 4 SSE 1016,9 10
10.08.2018 21:00:00 28,0 20,8 4 2 SSW 1017,0 10
10.08.2018 20:00:00 30,2 20,2 0 0 N 1016,6 15
10.08.2018 19:00:00 31,0 19,7 11 6 WSW 1016,6 20
10.08.2018 18:00:00 31,2 18,9 13 7 SW 1016,9 20
10.08.2018 17:00:00 31,8 19,4 11 6 W 1017,3 20
10.08.2018 16:00:00 31,6 18,9 13 7 SSW 1017,7 20
10.08.2018 15:00:00 31,8 18,8 15 8 WSW 1018,0 20
10.08.2018 14:00:00 31,6 20,2 11 6 SW 1018,2 12
10.08.2018 13:00:00 30,6 23,5 8 4 SSW 1018,4 10
10.08.2018 12:00:00 29,2 23,2 0 0 N 1018,7 10
10.08.2018 11:00:00 28,2 23,6 5 3 ENE 1018,7 10
10.08.2018 10:00:00 26,2 22,9 8 4 E 1018,5 10
10.08.2018 09:00:00 25,4 22,1 0 0 N 1018,2 10
10.08.2018 08:00:00 23,0 20,9 4 2 WSW 1018,3 10
10.08.2018 07:00:00 21,8 20,1 4 2 WSW 1018,0 10
10.08.2018 06:00:00 22,0 20,3 0 0 N 1016,7 10
10.08.2018 05:00:00 22,2 20,5 5 3 N 1016,5 15
10.08.2018 04:00:00 22,2 21,2 8 4 WNW 1016,5 15
10.08.2018 03:00:00 23,2 21,5 9 5 SW 1016,3 15
10.08.2018 02:00:00 24,4 21,3 5 3 NNW 1016,3 15
10.08.2018 01:00:00 24,6 21,1 5 3 WNW 1016,5 15
10.08.2018 00:00:00 25,0 19,6 18 10 WNW 1017,0 15
09.08.2018 23:00:00 27,0 20,3 22 12 W 1017,2 10
09.08.2018 22:00:00 27,2 21,5 5 3 W 1016,1 10
09.08.2018 21:00:00 27,8 21,6 4 2 WSW 1015,0 10
09.08.2018 20:00:00 29,0 21,3 9 5 WSW 1014,5 9
09.08.2018 19:00:00 30,0 23,4 13 7 SW 1014,5 9
09.08.2018 18:00:00 33,0 24,7 8 4 SSW 1014,5 10
09.08.2018 17:00:00 34,0 26,5 11 6 S 1014,6 10
09.08.2018 16:00:00 34,2 24,8 15 8 WSW 1015,4 10
09.08.2018 15:00:00 34,0 24,0 9 5 WSW 1015,2 12
09.08.2018 14:00:00 34,0 24,3 13 7 SSW 1015,4 15
09.08.2018 13:00:00 34,0 24,3 5 3 NNW 1015,8 15
09.08.2018 12:00:00 31,6 23,7 2 1 WNW 1016,0 15
09.08.2018 11:00:00 30,0 22,7 4 2 SE 1016,0 15
09.08.2018 10:00:00 29,2 22,0 5 3 ESE 1016,0 15
09.08.2018 09:00:00 27,4 21,4 4 2 NW 1016,1 15
09.08.2018 08:00:00 24,8 21,5 8 4 N 1015,2 15
09.08.2018 07:00:00 23,2 21,5 2 1 E 1015,1 15
09.08.2018 06:00:00 23,6 21,5 5 3 NNE 1014,9 15
09.08.2018 05:00:00 24,0 22,1 5 3 NNE 1014,9 20
09.08.2018 04:00:00 24,2 22,1 4 2 NNW 1014,9 20
09.08.2018 03:00:00 24,4 22,1 5 3 N 1014,9 20
09.08.2018 02:00:00 24,6 21,9 2 1 WNW 1015,2 20
09.08.2018 01:00:00 24,8 22,1 5 3 N 1015,1 15
09.08.2018 00:00:00 25,0 21,9 11 6 N 1014,8 20
08.08.2018 23:00:00 25,4 21,9 4 2 N 1014,8 15

tt = Température de l'air
td = dewpoint
ff = Vitesse du vent
dd = Direction du vent
ppp = reduced air pressure
vv = visibility

stations d'obs. à proximité